User: anonymous   Login
Location: Unspecified
(0.0000°N, 0.0000°E)
Time: 21:47:33
(UTC+00:00)
Language:

LAPAN A2 - Orbit

View from above orbital plane
View from above orbital plane
View from above satellite
View from above satellite

Ground track
Ground track

The orbit data is extracted from the following two-line orbital elements,

1 40931U 15052B   22334.64570772  .00000952  00000-0  42912-4 0  9990
2 40931   5.9954  63.4432 0013969   1.0748 358.8752 14.76929612387958
Epoch (UTC): 30 November 2022 15:29:49
Eccentricity: 0.0013969
inclination: 5.9954°
perigee height: 629 km
apogee height: 649 km
right ascension of ascending node: 63.4432°
argument of perigee: 1.0748°
revolutions per day: 14.76929612
mean anomaly at epoch: 358.8752°
orbit number at epoch: 38795

The dashed part of the orbit path shows where the satellite is in the earth's shadow,  

DLR